Temperature
23 23 22 22 21 21 20 20 20 20 20 20 20 20 20 20 20 20 19 19 19 20 20 20 20 20 21 21 21 20 20 20 20 20 20 20 20 20 19 19 18 18 18
24 24 22 22 21 21 20 20 20 20 20 20 20 20 20 20 20 19 19 19 19 19 19 20 20 20 20 21 21 21 21 21 20 20 20 20 20 20 19 19 18 19 19
24 24 23 22 21 21 20 20 20 20 20 19 19 19 19 19 19 19 19 19 19 19 19 19 19 20 20 20 21 21 21 21 20 20 20 20 19 20 20 19 19 19 19
24 24 23 22 22 21 20 20 20 20 20 19 19 19 19 19 19 19 19 19 19 19 19 19 19 19 19 20 20 20 20 20 20 20 19 18 18 19 19 20 19 19 19
23 24 24 23 22 21 20 20 20 19 19 19 19 19 19 19 19 19 19 19 19 19 19 19 19 19 19 19 19 20 20 20 20 20 19 19 18 19 19 19 19 19 19
22 23 24 23 22 21 20 20 20 19 19 19 19 19 19 19 19 19 19 19 19 19 19 19 19 19 19 19 19 19 19 19 20 20 19 19 19 19 19 19 19 19 19
22 22 23 23 22 22 21 20 20 20 19 19 19 19 19 19 19 19 19 19 19 19 19 19 19 19 19 19 19 19 19 19 19 19 18 18 19 19 18 18 18 19 19
22 22 23 23 22 22 21 20 20 20 20 20 20 20 19 19 19 19 19 19 19 19 19 19 19 19 19 19 19 19 19 19 19 18 18 18 19 18 18 18 18 18 18
23 22 23 23 22 22 21 21 20 20 20 20 20 19 19 19 19 19 19 19 19 19 19 19 19 19 19 19 19 19 19 19 19 19 18 19 19 19 18 18 18 18 18
23 22 23 23 22 22 21 21 21 20 20 20 20 20 19 19 19 19 19 19 19 19 19 19 19 19 19 19 19 19 19 19 19 19 19 19 19 19 18 18 18 18 18
24 22 22 22 22 22 22 21 21 21 20 20 20 20 20 20 19 19 19 19 19 19 19 19 19 19 19 19 19 19 18 19 19 19 19 19 19 19 19 19 19 19 18
24 23 22 22 21 21 21 20 21 21 21 20 20 20 19 19 19 18 18 18 19 19 19 19 19 19 19 19 19 18 18 19 19 19 19 19 19 19 19 19 19 19 18
24 24 23 22 21 21 20 20 20 20 20 20 20 19 19 19 19 19 19 19 19 19 19 19 19 19 19 18 18 18 19 19 19 19 19 19 19 19 19 19 19 19 18
24 23 23 22 21 21 21 21 20 20 20 20 20 19 19 19 19 19 19 19 19 19 19 19 19 19 19 18 18 18 18 19 19 19 19 19 19 19 19 19 19 19 19
23 23 23 22 21 20 20 21 20 20 21 20 20 20 20 19 19 19 19 19 19 19 19 19 19 19 19 19 19 19 19 19 19 19 19 19 19 19 19 19 19 19 19
23 22 22 22 21 20 20 20 20 20 21 21 21 20 20 20 19 19 19 19 19 19 19 19 19 19 19 19 19 19 19 19 19 19 19 19 19 19 19 19 19 19 19
23 23 22 21 20 20 20 20 20 20 20 21 21 21 20 20 19 19 19 19 19 19 19 19 19 19 19 19 19 19 19 19 19 19 19 19 19 19 19 19 19 19 19
24 23 22 21 21 20 20 19 19 20 20 21 21 21 21 20 20 19 19 19 19 19 19 19 19 19 19 19 19 19 19 19 19 19 19 19 19 19 19 19 19 19 19
23 23 22 21 21 20 20 20 20 20 20 21 21 21 21 20 20 19 19 19 19 19 19 19 19 19 19 19 19 19 19 19 19 19 19 19 19 19 19 19 19 19 19
23 22 22 21 20 20 20 20 20 20 20 20 20 20 21 20 20 19 19 19 19 19 19 19 19 19 19 19 19 19 19 19 19 19 20 20 20 20 20 19 19 19 19
22 22 21 20 20 20 20 19 19 19 20 20 20 20 20 20 20 20 19 19 19 19 19 19 19 19 19 19 18 18 19 19 20 20 20 20 20 20 20 20 19 19 19
21 21 20 20 19 19 19 19 19 19 19 19 19 20 20 19 19 19 19 19 19 19 19 19 19 19 18 18 18 17 18 19 20 21 21 20 20 20 20 19 20 19 19
20 20 20 19 19 19 19 19 19 19 19 19 19 19 19 19 19 19 19 19 19 18 18 18 18 18 18 18 17 17 17 18 19 20 20 20 20 20 19 19 19 19 19
20 20 19 19 19 19 18 18 18 18 18 18 19 18 19 19 19 18 18 18 18 18 18 18 17 17 16 17 17 17 17 17 16 18 19 19 19 19 19 19 18 18 19
20 20 19 19 18 18 18 18 17 17 18 18 18 18 18 18 18 18 18 18 18 18 17 17 16 16 16 16 16 16 16 16 16 16 17 18 18 18 18 18 18 18 18
20 20 19 18 18 17 17 17 17 17 17 17 17 17 17 17 17 17 17 17 17 17 16 16 16 15 15 15 15 15 15 16 16 16 16 17 17 17 17 17 17 17 17
Wind_Speed
20 21 23 18 16 15 16 15 15 14 14 13 12 11 11 10 10 9 9 9 9 9 10 10 10 10 10 10 11 11 11 11 11 10 10 10 10 9 8 7 5 12 11
23 22 23 19 16 15 16 15 15 14 14 13 12 11 10 9 8 8 7 7 7 8 8 8 8 8 9 9 9 8 8 7 7 7 8 9 9 7 6 5 8 13 11
23 22 22 19 17 16 15 14 14 14 14 13 12 11 9 8 7 6 6 5 5 6 6 6 6 6 7 7 7 7 6 5 5 5 7 9 10 9 7 6 9 10 9
22 21 21 20 18 16 15 14 14 15 14 13 12 11 9 8 7 6 6 5 4 4 4 5 5 5 5 5 5 5 5 4 5 6 9 11 12 12 10 7 6 6 6
19 20 22 21 19 18 16 15 14 14 13 12 12 11 10 9 8 7 7 6 5 5 4 4 4 4 4 4 5 6 6 6 7 10 13 11 12 17 14 11 8 7 6
19 20 22 21 19 18 17 15 14 14 13 12 11 11 10 9 9 8 7 6 6 5 5 5 4 4 5 5 6 7 7 8 9 12 14 12 11 19 17 14 11 9 9
19 20 22 21 20 18 17 16 15 14 13 12 11 11 10 10 9 9 8 7 6 6 6 6 6 6 6 6 7 8 9 10 11 14 14 13 10 20 18 15 14 12 12
19 20 21 21 19 18 17 15 14 14 13 12 12 11 10 10 9 9 9 9 8 8 7 7 7 8 8 8 9 10 11 12 13 15 17 14 14 22 19 17 15 14 14
19 20 18 19 17 17 16 15 14 13 13 12 12 11 11 11 11 10 10 10 10 10 9 9 10 10 11 11 12 12 13 14 15 15 17 12 18 23 20 18 16 15 15
18 20 17 18 17 16 15 16 15 14 13 13 12 12 12 12 13 14 14 14 14 13 12 12 13 13 14 14 15 15 16 15 16 17 17 14 19 24 20 17 16 15 16
15 18 18 18 16 16 16 18 17 15 15 14 13 14 14 13 15 17 19 19 19 17 16 15 16 16 16 18 20 20 17 14 16 17 16 14 20 22 19 17 16 16 17
13 17 16 16 15 14 15 16 15 15 15 16 15 16 15 15 15 15 20 23 22 21 19 19 19 17 17 16 19 24 16 17 17 16 13 18 22 21 19 18 17 17 18
10 12 15 14 14 13 8 11 11 12 14 17 17 17 16 14 13 13 10 16 19 20 17 17 18 16 15 15 12 11 15 15 13 13 9 19 21 20 18 18 17 18 18
11 11 12 13 13 10 7 7 8 8 7 10 16 18 13 7 6 6 4 9 12 13 13 11 9 13 14 14 12 9 11 11 11 7 8 19 20 20 19 18 18 19 19
11 11 9 10 11 9 7 5 7 7 7 9 10 16 14 7 9 8 5 5 6 7 7 7 6 7 7 7 8 8 8 9 10 11 9 19 22 21 21 20 20 20 20
13 12 11 10 10 8 7 6 6 6 5 7 7 12 16 10 7 6 6 5 5 7 6 4 6 6 6 7 8 7 7 8 8 10 11 15 22 23 23 23 23 22 21
11 11 9 10 10 9 9 10 9 9 9 7 6 10 13 12 7 6 6 6 5 7 7 4 4 4 6 7 8 9 8 7 8 8 11 11 14 22 25 25 25 24 23
9 10 9 11 12 11 9 8 9 10 8 7 6 8 10 12 10 6 6 6 5 5 3 4 5 5 6 5 6 6 6 6 8 8 9 11 13 15 20 26 26 25 24
3 5 8 8 8 11 12 10 10 8 8 6 5 5 7 11 12 7 7 6 4 4 4 5 5 4 5 5 6 7 7 8 9 11 10 10 12 14 13 20 28 27 26
2 3 5 7 7 5 6 8 8 10 9 7 7 6 6 6 8 7 7 8 7 5 5 5 6 5 5 5 8 9 7 8 9 10 11 10 8 11 14 13 17 22 26
1 2 3 4 5 6 6 6 7 8 8 8 7 7 7 7 7 7 7 6 7 7 7 7 6 6 6 5 5 7 9 11 12 12 11 9 9 7 8 8 12 15 17
6 6 5 3 4 5 6 6 6 7 7 8 8 7 5 5 6 8 8 7 7 7 9 8 7 5 5 5 4 5 5 6 9 11 7 7 8 6 6 6 7 11 12
4 5 5 6 5 5 6 6 7 6 7 8 8 8 8 7 7 8 9 8 8 9 9 9 8 9 7 6 5 4 4 3 4 6 4 4 5 4 3 3 4 5 8
3 3 2 3 4 5 6 6 8 8 9 9 8 7 8 8 8 8 9 9 8 8 8 9 9 7 7 6 3 4 6 5 4 5 4 3 4 3 3 4 4 3 4
5 5 4 4 4 4 6 7 8 9 8 8 8 8 8 7 7 7 7 6 6 6 6 6 5 5 4 4 3 3 5 6 8 6 5 4 3 3 3 4 3 3 2
5 5 5 4 5 5 6 8 8 9 10 10 10 8 7 6 6 6 5 5 5 4 4 4 3 3 3 3 3 3 4 4 4 5 4 4 4 3 3 2 1 2 2
Wind_Direction
129 137 136 134 134 143 150 146 142 138 136 135 133 129 126 122 117 111 104 100 101 102 101 100 102 101 95 89 84 82 82 83 87 94 100 103 104 104 101 95 116 105 103
127 136 136 136 137 143 152 151 147 144 142 142 142 140 136 132 128 123 116 110 106 104 103 102 104 108 110 109 108 106 104 106 114 124 129 129 126 119 105 69 58 113 115
128 135 138 137 138 140 146 151 151 149 148 148 149 148 145 142 138 135 133 128 120 115 113 112 112 116 121 125 128 131 135 143 160 172 181 175 152 146 132 103 96 115 123
130 140 142 141 140 140 143 148 153 154 152 151 152 153 153 154 157 158 157 155 148 139 137 137 137 138 144 151 157 162 172 193 220 232 227 219 170 162 152 141 134 138 146
132 140 140 146 144 144 145 148 152 154 154 154 156 158 161 165 172 174 172 172 171 166 164 168 171 173 181 191 197 199 206 222 244 258 260 252 163 160 161 159 168 176 181
136 141 145 150 149 149 151 153 154 156 159 161 163 166 171 177 182 184 181 185 188 188 190 193 199 207 215 220 221 222 229 239 254 257 256 258 165 168 167 169 180 195 203
144 142 150 154 155 156 158 160 162 163 166 168 171 175 181 188 193 196 195 198 205 211 216 216 212 214 224 234 235 233 237 246 254 269 266 252 177 167 171 177 187 202 213
146 142 151 158 160 163 165 168 170 172 175 177 179 183 188 195 201 205 205 207 211 216 222 228 225 220 222 230 236 241 245 251 254 257 260 248 177 169 176 183 191 206 219
147 141 153 161 165 169 172 176 178 180 183 186 189 192 197 203 208 212 213 215 218 220 221 225 231 233 232 233 237 241 246 250 262 271 271 251 181 177 182 188 195 207 222
148 145 158 163 167 173 179 184 187 189 192 196 200 203 206 211 217 219 219 218 219 220 222 226 232 237 240 241 241 242 245 251 254 259 261 253 188 181 186 193 202 214 225
156 150 164 167 170 178 184 186 190 197 202 205 210 214 216 220 219 217 223 219 216 218 220 225 231 237 242 246 245 243 242 243 250 250 250 230 185 182 188 197 208 220 230
164 160 168 170 169 183 194 179 188 199 202 207 213 209 212 225 235 229 214 214 214 217 220 224 230 236 240 248 246 235 235 237 246 253 241 182 178 184 191 201 211 223 233
175 178 170 169 164 185 201 173 188 201 198 201 218 218 210 218 228 237 210 202 210 215 221 226 227 231 236 236 243 221 220 240 243 247 220 183 183 188 196 206 215 225 233
181 195 184 168 165 188 205 194 187 201 197 197 202 215 213 208 229 230 214 193 201 210 212 222 210 217 229 239 234 227 224 233 249 253 191 186 188 196 205 212 219 226 232
181 198 203 166 164 177 212 237 206 208 205 203 202 201 213 207 213 225 221 216 226 235 207 208 219 217 221 237 243 243 241 241 242 247 225 195 198 204 210 217 222 227 231
183 197 204 176 170 179 194 217 259 245 215 227 208 198 202 214 214 217 214 208 217 240 254 222 222 224 228 234 243 247 246 250 245 239 238 212 210 212 214 219 222 225 228
188 195 200 191 184 190 208 213 225 237 242 229 217 211 197 205 214 217 227 224 222 226 230 238 253 251 252 250 244 244 244 240 244 240 236 237 230 222 221 221 222 224 226
196 188 195 212 198 194 209 223 231 236 238 237 221 212 204 208 212 217 223 227 222 223 218 228 237 246 253 262 269 272 269 259 246 237 234 232 236 240 225 222 222 222 224
224 192 187 216 222 199 203 219 237 253 257 261 253 226 210 208 209 208 223 227 224 226 225 246 244 244 255 260 267 263 256 256 257 253 243 237 235 232 227 215 215 217 221
241 226 210 208 244 249 223 226 238 249 252 246 249 255 251 228 214 209 217 220 221 226 225 226 239 245 249 250 266 273 279 271 258 249 244 243 237 237 236 226 211 217 220
327 254 244 242 251 260 259 251 249 252 259 264 259 246 237 234 232 219 231 223 218 225 227 223 225 237 241 244 255 267 266 263 256 245 235 231 237 240 241 225 203 207 215
9 2 347 332 295 276 265 265 264 267 270 266 266 269 264 251 238 234 226 233 234 238 235 227 223 227 234 225 228 259 270 275 271 257 220 211 223 236 251 241 206 202 198
15 350 346 353 336 320 305 285 277 273 264 265 262 261 258 253 249 247 244 241 239 239 241 234 228 226 229 226 217 230 250 256 314 299 263 223 220 218 238 282 265 219 207
330 310 326 325 324 320 309 296 290 280 272 268 269 264 258 251 247 246 245 243 244 245 244 243 237 232 227 230 232 235 249 269 275 294 309 353 359 340 319 310 293 263 222
317 317 311 297 296 302 302 293 286 283 280 280 277 265 256 248 242 243 244 244 241 242 244 242 234 217 217 225 227 252 261 253 245 252 278 308 328 311 300 285 291 308 298
310 301 301 315 311 297 289 289 286 286 287 286 282 273 261 247 237 228 230 232 233 230 227 215 198 199 220 225 238 251 260 252 246 229 251 283 289 280 270 260 294 329 327
Height
1511 1513 1517 1521 1524 1526 1528 1531 1533 1535 1537 1539 1541 1543 1545 1546 1548 1549 1550 1551 1551 1552 1553 1554 1554 1555 1556 1557 1558 1559 1559 1560 1561 1561 1561 1562 1561 1561 1562 1562 1562 1563 1563
1509 1514 1518 1521 1524 1527 1529 1532 1534 1537 1539 1541 1543 1544 1546 1548 1549 1550 1551 1552 1553 1554 1555 1555 1556 1557 1557 1558 1559 1560 1560 1561 1562 1563 1563 1563 1564 1564 1563 1563 1563 1564 1565
1509 1514 1518 1522 1525 1528 1530 1533 1535 1538 1540 1542 1544 1546 1547 1549 1550 1551 1552 1553 1554 1555 1556 1556 1557 1558 1558 1559 1559 1560 1561 1562 1562 1563 1564 1564 1565 1565 1565 1565 1565 1566 1566
1511 1515 1518 1522 1526 1529 1531 1534 1536 1539 1541 1543 1545 1546 1548 1549 1550 1551 1552 1553 1554 1555 1556 1557 1558 1558 1559 1559 1560 1560 1561 1562 1562 1563 1564 1564 1565 1566 1566 1566 1566 1566 1566
1512 1516 1519 1523 1526 1529 1532 1534 1537 1539 1542 1544 1545 1547 1548 1549 1551 1551 1552 1553 1554 1555 1556 1557 1558 1559 1559 1560 1560 1560 1561 1561 1562 1563 1564 1565 1566 1566 1566 1567 1566 1566 1566
1513 1516 1519 1523 1526 1529 1532 1534 1537 1539 1542 1544 1545 1547 1548 1549 1550 1551 1552 1553 1554 1555 1556 1557 1557 1558 1559 1559 1559 1560 1560 1560 1561 1562 1563 1564 1565 1565 1565 1566 1566 1566 1566
1515 1516 1519 1522 1526 1529 1532 1534 1536 1539 1541 1543 1545 1546 1548 1549 1550 1550 1551 1552 1553 1554 1555 1556 1557 1557 1558 1558 1558 1559 1559 1559 1560 1560 1561 1563 1564 1563 1563 1564 1564 1564 1564
1516 1516 1520 1522 1525 1528 1531 1534 1536 1538 1540 1542 1544 1546 1547 1548 1549 1550 1551 1552 1552 1553 1554 1555 1556 1556 1557 1557 1557 1557 1557 1557 1558 1558 1559 1561 1561 1561 1561 1561 1561 1562 1562
1516 1516 1520 1522 1525 1527 1530 1533 1535 1537 1539 1541 1543 1545 1546 1547 1548 1549 1550 1550 1551 1552 1553 1554 1555 1555 1555 1555 1555 1555 1555 1555 1555 1555 1556 1558 1558 1558 1558 1559 1558 1558 1559
1517 1516 1519 1522 1524 1527 1529 1532 1534 1536 1538 1540 1542 1543 1544 1545 1546 1547 1548 1549 1550 1550 1551 1552 1552 1553 1553 1553 1553 1553 1553 1553 1552 1552 1553 1554 1555 1555 1555 1555 1555 1555 1555
1517 1516 1518 1520 1522 1525 1528 1530 1533 1534 1536 1538 1540 1541 1542 1543 1544 1545 1546 1547 1548 1548 1549 1549 1550 1550 1550 1550 1550 1550 1550 1549 1549 1549 1550 1551 1552 1552 1552 1552 1552 1551 1551
1516 1517 1518 1520 1521 1524 1527 1529 1531 1533 1534 1536 1538 1539 1540 1541 1542 1544 1544 1545 1545 1546 1546 1546 1547 1547 1547 1547 1547 1547 1547 1547 1547 1547 1547 1548 1548 1549 1549 1548 1548 1548 1547
1515 1517 1518 1520 1520 1523 1527 1529 1529 1531 1532 1533 1535 1537 1538 1539 1540 1542 1542 1542 1542 1543 1543 1543 1543 1543 1543 1543 1544 1545 1545 1546 1545 1545 1545 1544 1545 1545 1545 1545 1544 1544 1543
1513 1516 1518 1518 1518 1521 1525 1528 1528 1530 1531 1531 1532 1534 1536 1536 1538 1539 1540 1540 1540 1539 1539 1540 1540 1540 1541 1542 1543 1544 1543 1543 1543 1544 1542 1542 1542 1542 1541 1541 1540 1540 1539
1510 1513 1516 1516 1516 1518 1521 1524 1527 1528 1530 1530 1530 1531 1532 1534 1534 1536 1537 1538 1539 1539 1539 1538 1538 1539 1539 1539 1540 1540 1541 1541 1540 1540 1540 1539 1538 1538 1537 1536 1536 1535 1535
1508 1511 1513 1514 1514 1515 1517 1520 1522 1524 1526 1528 1528 1528 1528 1530 1532 1533 1533 1534 1534 1535 1536 1536 1535 1535 1535 1535 1536 1536 1536 1536 1536 1536 1536 1535 1534 1533 1533 1532 1531 1530 1530
1507 1508 1510 1511 1512 1513 1515 1516 1519 1520 1522 1524 1525 1526 1525 1526 1527 1528 1529 1529 1529 1530 1531 1531 1531 1531 1531 1532 1531 1531 1531 1531 1531 1531 1531 1530 1529 1528 1528 1527 1527 1526 1526
1505 1506 1507 1510 1510 1510 1512 1514 1515 1517 1519 1520 1521 1521 1522 1522 1522 1523 1523 1524 1524 1525 1525 1525 1526 1526 1526 1526 1526 1527 1527 1526 1526 1526 1525 1524 1524 1523 1522 1522 1522 1522 1522
1504 1505 1505 1507 1508 1508 1508 1510 1511 1513 1514 1515 1517 1517 1517 1517 1517 1517 1517 1518 1519 1519 1519 1519 1520 1520 1520 1520 1520 1520 1520 1520 1520 1520 1519 1519 1518 1518 1517 1517 1517 1517 1517
1503 1503 1504 1504 1505 1506 1506 1506 1507 1508 1509 1510 1511 1512 1513 1513 1513 1512 1512 1512 1512 1513 1513 1513 1513 1514 1514 1515 1515 1514 1513 1513 1514 1513 1513 1513 1513 1513 1512 1511 1510 1510 1511
1502 1501 1501 1502 1502 1502 1503 1503 1503 1503 1504 1505 1506 1506 1507 1507 1508 1507 1507 1507 1506 1506 1506 1506 1506 1506 1508 1509 1509 1508 1507 1506 1506 1506 1505 1506 1506 1507 1507 1506 1504 1504 1505
1501 1500 1500 1499 1499 1499 1499 1499 1499 1500 1500 1500 1500 1500 1500 1500 1501 1501 1500 1500 1500 1500 1500 1499 1499 1499 1500 1502 1503 1503 1502 1500 1500 1501 1499 1499 1500 1501 1502 1502 1501 1500 1500
1500 1499 1498 1497 1496 1495 1495 1495 1494 1494 1493 1493 1494 1494 1494 1494 1493 1493 1493 1492 1492 1493 1492 1491 1492 1492 1493 1494 1496 1497 1497 1496 1496 1496 1495 1496 1496 1496 1497 1497 1497 1496 1496
1500 1499 1497 1495 1494 1493 1492 1491 1490 1489 1488 1488 1488 1487 1486 1486 1486 1486 1485 1485 1485 1485 1484 1484 1484 1484 1485 1486 1487 1489 1491 1492 1494 1493 1492 1492 1491 1491 1491 1491 1492 1491 1491
1499 1497 1495 1493 1491 1490 1489 1487 1486 1485 1483 1482 1481 1480 1479 1479 1478 1478 1478 1477 1477 1477 1476 1476 1476 1476 1477 1478 1480 1481 1484 1487 1489 1489 1488 1487 1487 1487 1486 1486 1487 1487 1487
1496 1495 1493 1491 1489 1487 1485 1484 1482 1480 1478 1477 1475 1474 1473 1472 1471 1470 1470 1470 1470 1470 1469 1469 1470 1470 1471 1472 1474 1476 1479 1482 1484 1484 1484 1483 1483 1482 1482 1482 1483 1483 1484